sat.trackr.live / text

‹ back to catalog

STARLINK-35892

NORAD 67115 · 2025-299P

PAYLOAD ACTIVE UNKNOWN

§ Identity

Operator
Country
US
Launch date
2025-12-15
Launch site
AFETR
Launch vehicle
Mass (kg)
RCS (m²)

Purposes: comms

External: N2YO · Heavens-Above · Gunter

§ Orbital elements

Epoch: 2026-05-25T03:46:32.523168Z

Period
94.27 min
Inclination
43.0002°
Eccentricity
0.0000952
Mean motion
15.27595603 rev/d
Perigee alt
482.3 km
Apogee alt
483.7 km
Semi-major
6,861.1 km
B*
6.7298e-4
RAAN
96.9102°
Arg perigee
252.2009°
Mean anomaly
107.8739°
Rev number
2,481

§ Raw data

STARLINK-358921 67115U 25299P   26145.15732087  .00018312  00000+0  67298-3 0  99972 67115  43.0002  96.9102 0000952 252.2009 107.8739 15.27595603 24817

JSON: /api/v1/satellites/67115 · /tle

For live sub-satellite position, see the globe view (requires WebGL).

§ Visibility from observer

Set your observer location to see the next 7 days of passes ≥ 10°. The values pass through the URL so the page stays shareable.

No JS? Fill the form by hand. The geolocation button needs JavaScript.